Marion Reef Observation History
Time Wind Speed Temp Pressure Rel. Hum Rain
03/07:30am SSE 22-26 kts 23.7°c 1018.6 hPa n/a n/a
03/07:00am SSE 21-25 kts 23.9°c 1018.4 hPa n/a n/a
03/06:30am SSE 21-25 kts 24.0°c 1018.0 hPa n/a n/a
03/06:00am SSE 21-25 kts 23.9°c 1017.7 hPa n/a n/a
03/05:30am SSE 21-25 kts 23.9°c 1017.2 hPa n/a n/a
03/05:00am SSE 22-26 kts 24.1°c 1017.1 hPa n/a n/a
03/04:30am SSE 21-25 kts 24.1°c 1017.0 hPa n/a n/a
03/04:00am SSE 21-25 kts 24.1°c 1016.9 hPa n/a n/a
03/03:30am S 21-24 kts 24.0°c 1017.0 hPa n/a n/a
03/03:00am SSE 20-24 kts 24.1°c 1017.1 hPa n/a n/a
03/02:30am SSE 21-23 kts 24.1°c 1017.2 hPa n/a n/a
03/02:00am SSE 19-23 kts 24.1°c 1017.5 hPa n/a n/a
03/01:30am SSE 20-24 kts 24.1°c 1017.9 hPa n/a n/a
03/01:00am SSE 21-25 kts 24.1°c 1018.1 hPa n/a n/a
03/12:30am SSE 20-25 kts 24.1°c 1018.3 hPa n/a n/a
03/12:00am SSE 21-25 kts 24.2°c 1018.3 hPa n/a n/a
Time Wind Speed Temp Pressure Rel. Hum Rain
02/11:30pm SSE 21-25 kts 24.0°c 1018.6 hPa n/a n/a
02/11:00pm SSE 21-25 kts 24.0°c 1018.7 hPa n/a n/a
02/10:30pm S 20-23 kts 24.0°c 1018.9 hPa n/a n/a
02/10:00pm SSE 20-23 kts 24.1°c 1018.9 hPa n/a n/a
02/09:30pm SSE 19-23 kts 24.1°c 1019.1 hPa n/a n/a
02/09:00pm SSE 19-23 kts 24.2°c 1019.0 hPa n/a n/a
02/08:30pm S 19-22 kts 24.2°c 1018.9 hPa n/a n/a
02/08:00pm S 19-22 kts 24.1°c 1018.6 hPa n/a n/a
02/07:30pm S 19-22 kts 24.2°c 1018.3 hPa n/a n/a
02/07:00pm S 19-22 kts 24.4°c 1017.9 hPa n/a n/a
02/06:30pm S 20-23 kts 24.3°c 1017.6 hPa n/a n/a
02/06:00pm S 19-22 kts 24.3°c 1017.4 hPa n/a n/a
02/05:30pm SSE 18-22 kts 24.4°c 1017.0 hPa n/a n/a
02/05:00pm S 18-21 kts 24.4°c 1016.9 hPa n/a n/a
02/04:30pm S 17-19 kts 24.5°c 1016.8 hPa n/a n/a
02/04:00pm SSE 17-19 kts 24.4°c 1016.6 hPa n/a n/a
02/03:30pm S 16-19 kts 24.3°c 1016.5 hPa n/a n/a
02/03:00pm SSE 16-18 kts 24.4°c 1016.4 hPa n/a n/a
02/02:30pm SSE 15-17 kts 24.2°c 1016.3 hPa n/a n/a
02/02:00pm SSE 15-17 kts 24.2°c 1016.2 hPa n/a n/a
02/01:30pm SSE 14-17 kts 24.6°c 1016.5 hPa n/a n/a
02/01:00pm SSE 15-17 kts 24.2°c 1016.7 hPa n/a n/a
02/12:30pm SSE 13-16 kts 24.4°c 1017.0 hPa n/a n/a
02/12:00pm SSE 14-16 kts 24.3°c 1017.4 hPa n/a n/a
02/11:30am SSE 14-17 kts 24.2°c 1017.7 hPa n/a n/a
02/11:00am SSE 14-17 kts 24.2°c 1018.0 hPa n/a n/a
02/10:30am SSE 14-16 kts 24.1°c 1018.2 hPa n/a n/a
02/10:00am SSE 14-16 kts 24.2°c 1018.4 hPa n/a n/a
02/09:30am SSE 13-15 kts 24.3°c 1018.6 hPa n/a n/a
02/09:00am SSE 13-15 kts 24.3°c 1018.4 hPa n/a n/a
02/08:30am SSE 12-15 kts 24.1°c 1018.3 hPa n/a n/a
02/08:00am SSE 13-15 kts 24.0°c 1018.2 hPa n/a n/a
02/07:30am SSE 12-14 kts 24.0°c 1018.0 hPa n/a n/a
02/07:00am SSE 12-15 kts 23.8°c 1017.6 hPa n/a n/a
02/06:30am SSE 12-15 kts 23.8°c 1017.2 hPa n/a n/a
02/06:00am SSE 12-14 kts 24.0°c 1016.8 hPa n/a n/a
02/05:30am SSE 11-13 kts 24.0°c 1016.5 hPa n/a n/a
02/05:00am SSE 10-13 kts 24.3°c 1016.2 hPa n/a n/a
02/04:30am SE 11-12 kts 24.3°c 1016.0 hPa n/a n/a
02/04:00am SSE 11-12 kts 24.3°c 1015.9 hPa n/a n/a
02/03:30am SSE 10-12 kts 24.2°c 1015.8 hPa n/a n/a
02/03:00am SSE 9-12 kts 24.1°c 1016.0 hPa n/a n/a
02/02:30am SSE 9-11 kts 24.2°c 1016.2 hPa n/a n/a
02/02:00am S 8-10 kts 24.2°c 1016.4 hPa n/a n/a
02/01:30am S 8-10 kts 24.2°c 1016.9 hPa n/a n/a
02/01:00am SSE 9-10 kts 24.2°c 1017.3 hPa n/a n/a
02/12:30am SSE 9-11 kts 24.1°c 1017.3 hPa n/a n/a
02/12:00am SSE 9-10 kts 24.2°c 1017.3 hPa n/a n/a
Time Wind Speed Temp Pressure Rel. Hum Rain
01/11:30pm SSE 8-10 kts 24.3°c 1017.5 hPa n/a n/a
01/11:00pm SE 9-11 kts 24.2°c 1017.5 hPa n/a n/a
01/10:30pm SE 10-12 kts 24.4°c 1017.6 hPa n/a n/a
01/10:00pm SE 10-13 kts 24.5°c 1017.8 hPa n/a n/a
01/09:30pm SE 11-13 kts 24.5°c 1017.8 hPa n/a n/a
01/09:00pm SE 11-13 kts 24.4°c 1017.8 hPa n/a n/a
01/08:30pm SSE 11-13 kts 24.4°c 1017.7 hPa n/a n/a
01/08:00pm SE 11-13 kts 24.4°c 1017.4 hPa n/a n/a
01/07:30pm SSE 13-14 kts 24.4°c 1017.1 hPa n/a n/a
01/07:00pm SSE 13-15 kts 24.4°c 1016.9 hPa n/a n/a
01/06:30pm SSE 13-16 kts 24.3°c 1016.5 hPa n/a n/a
01/06:00pm SE 12-14 kts 24.4°c 1016.3 hPa n/a n/a
01/05:30pm SE 13-15 kts 24.4°c 1016.0 hPa n/a n/a
01/05:00pm SSE 13-16 kts 24.4°c 1015.8 hPa n/a n/a
01/04:30pm SSE 13-15 kts 24.4°c 1015.5 hPa n/a n/a
01/04:00pm SE 13-15 kts 24.4°c 1015.4 hPa n/a n/a
01/03:30pm SE 13-16 kts 24.4°c 1015.4 hPa n/a n/a
01/03:00pm SE 13-15 kts 24.4°c 1015.5 hPa n/a n/a
01/02:30pm SE 13-16 kts 24.5°c 1015.5 hPa n/a n/a
01/02:00pm SE 12-14 kts 24.7°c 1015.7 hPa n/a n/a
01/01:30pm SE 11-14 kts 24.6°c 1015.7 hPa n/a n/a
01/01:00pm SE 12-15 kts 24.5°c 1015.8 hPa n/a n/a
01/12:30pm SE 12-15 kts 24.7°c 1016.1 hPa n/a n/a
01/12:00pm SE 10-12 kts 24.6°c 1016.4 hPa n/a n/a
01/11:30am SE 10-11 kts 24.5°c 1016.7 hPa n/a n/a
01/11:00am SE 10-11 kts 24.4°c 1017.2 hPa n/a n/a
01/10:30am SE 9-11 kts 24.4°c 1017.4 hPa n/a n/a
01/10:00am SSE 8-11 kts 24.3°c 1017.8 hPa n/a n/a
01/09:30am SSE 8-10 kts 24.4°c 1018.1 hPa n/a n/a
01/09:00am SE 8-10 kts 24.1°c 1018.1 hPa n/a n/a
01/08:30am SE 8-10 kts 24.1°c 1018.0 hPa n/a n/a
01/08:00am SSE 9-11 kts 24.0°c 1017.6 hPa n/a n/a
01/07:30am SE 9-11 kts 24.0°c 1017.4 hPa n/a n/a
01/07:00am SSE 8-11 kts 23.9°c 1017.1 hPa n/a n/a
01/06:30am SSE 7-8 kts 23.9°c 1017.0 hPa n/a n/a
01/06:00am SSE 8-9 kts 23.9°c 1016.7 hPa n/a n/a
01/05:30am SSE 9-11 kts 24.0°c 1016.6 hPa n/a n/a
01/05:00am SE 9-10 kts 24.0°c 1016.5 hPa n/a n/a
01/04:30am SSE 9-10 kts 24.0°c 1016.5 hPa n/a n/a
01/04:00am SE 8-11 kts 24.0°c 1016.4 hPa n/a n/a
01/03:30am SE 10-13 kts 24.0°c 1016.4 hPa n/a n/a
01/03:00am SE 10-13 kts 23.9°c 1016.6 hPa n/a n/a
01/02:30am SE 12-15 kts 23.9°c 1016.8 hPa n/a n/a
01/02:00am SE 12-15 kts 24.1°c 1016.8 hPa n/a n/a
01/01:30am SSE 11-14 kts 24.1°c 1017.1 hPa n/a n/a
01/01:00am SE 11-14 kts 24.1°c 1017.4 hPa n/a n/a
01/12:30am SSE 13-16 kts 24.1°c 1017.6 hPa n/a n/a
01/12:00am SE 14-17 kts 24.0°c 1017.7 hPa n/a n/a